EST,Max TemperatureF,Mean TemperatureF,Min TemperatureF,Max Dew PointF,MeanDew PointF,Min DewpointF,Max Humidity, Mean Humidity, Min Humidity, Max Sea Level PressureIn, Mean Sea Level PressureIn, Min Sea Level PressureIn, Max VisibilityMiles, Mean VisibilityMiles, Min VisibilityMiles, Max Wind SpeedMPH, Mean Wind SpeedMPH, Max Gust SpeedMPH,PrecipitationIn, CloudCover, Events, WindDirDegrees
2012-12-1,69,61,53,57,53,50,94,77,56,30.38,30.34,30.30,10,10,10,15,3,16,0.00,6,,47
2012-12-2,71,63,55,61,57,52,100,82,60,30.39,30.33,30.29,10,9,0,9,2,,0.00,5,Fog,71
2012-12-3,75,63,51,63,57,48,100,87,61,30.34,30.30,30.26,10,6,0,8,1,,0.00,4,Fog,182
2012-12-4,75,66,55,63,58,54,94,83,53,30.36,30.29,30.26,10,10,5,9,1,,0.00,5,,221
2012-12-5,75,62,50,57,53,46,100,78,44,30.25,30.17,30.11,10,10,2,9,1,,0.00,0,,248
2012-12-6,62,58,53,55,52,45,94,79,68,30.19,30.15,30.12,10,10,10,18,7,25,0.00,6,,35
2012-12-7,64,58,53,55,51,45,94,82,68,30.12,30.04,29.99,10,8,2,13,8,17,0.00,7,,356
2012-12-8,71,60,50,57,53,48,100,86,53,30.11,30.06,30.02,10,6,0,6,2,,0.00,2,Fog,308
2012-12-9,77,64,51,66,60,50,94,86,69,30.15,30.08,29.99,10,9,5,7,1,,0.00,4,,125
2012-12-10,69,64,60,66,63,59,100,91,78,29.99,29.89,29.81,10,7,0,14,5,21,0.00,4,Fog,207
2012-12-11,73,68,60,64,62,57,100,86,69,30.08,29.95,29.81,10,8,2,13,6,17,0.00,5,,253
2012-12-12,62,54,46,57,52,45,100,91,82,30.19,30.13,30.07,10,6,2,15,6,18,0.53,8,Rain,5
2012-12-13,50,46,42,46,43,41,100,88,76,30.32,30.26,30.16,10,9,1,17,11,26,0.05,8,Rain,360
2012-12-14,60,51,42,46,43,37,93,75,48,30.37,30.29,30.22,10,10,7,13,7,,0.00,3,,2
2012-12-15,62,56,51,55,49,39,100,80,62,30.23,30.17,30.11,10,8,0,9,4,,0.00,8,Fog,10
2012-12-16,71,61,51,64,59,52,100,91,69,30.11,30.03,29.91,10,6,0,12,1,,0.00,5,Fog,182
2012-12-17,71,66,60,64,61,57,100,86,69,29.92,29.85,29.73,10,9,0,16,9,22,0.33,4,Rain-Thunderstorm,212
2012-12-18,69,58,46,61,47,32,94,64,25,30.02,29.86,29.77,10,10,9,21,9,28,0.00,2,,257
2012-12-19,71,56,41,48,39,30,93,62,22,30.14,30.08,30.02,10,10,10,14,3,16,0.00,0,,254
2012-12-20,71,56,42,64,53,39,94,81,50,30.13,29.96,29.69,10,9,1,25,6,36,0.20,2,Rain,179
2012-12-21,57,50,42,46,28,19,67,46,30,30.00,29.88,29.75,10,10,10,28,18,38,0.00,1,,266
2012-12-22,57,46,35,32,21,14,81,43,18,30.19,30.13,29.99,10,10,7,21,12,26,0.00,0,,277
2012-12-23,60,46,32,45,32,23,87,59,27,30.23,30.16,30.12,10,10,10,8,2,,0.00,0,,241
2012-12-24,62,53,44,55,45,37,94,71,39,30.14,30.04,29.97,10,10,3,14,3,22,0.11,3,Rain,215
2012-12-25,60,56,51,55,54,52,100,92,77,30.09,30.01,29.94,10,7,0,10,4,,0.20,7,Fog-Rain,31
2012-12-26,68,56,44,64,51,32,100,76,49,29.92,29.72,29.56,10,7,1,28,12,38,0.43,5,Rain-Thunderstorm,233
2012-12-27,57,47,37,39,34,32,93,67,41,30.09,29.99,29.84,10,10,7,22,10,30,0.00,0,,276
2012-12-28,57,46,35,48,41,32,93,83,63,30.16,30.08,29.93,10,10,7,8,1,,0.00,1,,57
2012-12-29,66,54,42,64,46,32,100,77,54,30.07,29.85,29.69,10,8,0,24,9,34,0.86,5,Rain,272
2012-12-30,51,42,32,32,27,21,93,60,30,30.45,30.34,30.08,10,10,10,17,9,22,0.00,0,,325
2012-12-31,59,44,30,46,36,27,93,73,38,30.44,30.34,30.22,10,10,8,6,1,,0.00,2,,168